Blackwell, OK

5:36 PM CDT on April 25, 2017 (GMT -0500)
Blackwell

Weather History for KBKN - August, 2013

Change the Weather History Date:

Friday, August 2, 2013

  Actual Average (KPNC) Record (KPNC)
Temperature  
Mean Temperature 84 °F -  
Max Temperature 96 °F 93 °F 111 °F (2011)
Min Temperature 73 °F 69 °F 59 °F (1973)
Cooling Degree Days 20    
Growing Degree Days 34 (Base 50)    
Moisture  
Dew Point 74 °F    
Average Humidity 75    
Maximum Humidity 100    
Minimum Humidity 47    
Precipitation  
Precipitation 0.03 in - - ()
Sea Level Pressure  
Sea Level Pressure 29.85 in    
Wind  
Wind Speed 10 mph (SE)    
Max Wind Speed 21 mph    
Max Gust Speed 26 mph    
Visibility 10 miles    
Events Rain    
Averages and records for this station are not official NWS values.
T = Trace of Precipitation, MM = Missing Value Source: NWS Daily Summary

Daily Weather History Graph

Daily Weather History Graph

Search for Another Location

Airport or City:

Trip Planner

Search our weather history database for the weather conditions in past years. The results will help you decide how hot, cold, wet, or windy it might be!

Date:

Astronomy

Aug. 02, 2013 Rise Set
Actual Time 6:36 AM CDT 8:34 PM CDT
Civil Twilight 6:07 AM CDT 9:02 PM CDT
Nautical Twilight 5:33 AM CDT 9:37 PM CDT
Astronomical Twilight 4:55 AM CDT 10:14 PM CDT
Moon 2:59 AM CDT (8/2) 5:32 PM CDT (8/2)
Length of Visible Light 14h 55m
Length of Day
13h 58m
Waning Crescent, 15% of the Moon is Illuminated
Aug 2
Waning Crescent
Aug 6
New
Aug 14
First Quarter
Aug 20
Full
Aug 28
Last Quarter

Hourly Weather History & Observations

Time (CDT) Temp. Heat Index Dew Point Humidity Pressure Visibility Wind Dir Wind Speed Gust Speed Precip Events Conditions
12:15 AM 73.4 °F - 69.8 °F 88% 29.95 in 10.0 mi SE 5.8 mph - N/A   Clear
12:35 AM 75.2 °F - 69.8 °F 83% 29.94 in 10.0 mi SE 6.9 mph - N/A   Clear
12:55 AM 75.2 °F - 69.8 °F 83% 29.93 in 10.0 mi SSE 8.1 mph - N/A   Clear
1:15 AM 77.0 °F - 69.8 °F 78% 29.91 in 10.0 mi SSE 10.4 mph - N/A   Clear
1:35 AM 77.0 °F - 69.8 °F 78% 29.90 in 10.0 mi SSE 11.5 mph - N/A   Clear
1:55 AM 75.2 °F - 71.6 °F 89% 29.90 in 10.0 mi South 8.1 mph - N/A   Partly Cloudy
2:15 AM 75.2 °F - 71.6 °F 89% 29.90 in 10.0 mi South 8.1 mph - N/A   Clear
2:35 AM 75.2 °F - 71.6 °F 89% 29.90 in 10.0 mi South 8.1 mph - N/A   Clear
2:55 AM 75.2 °F - 71.6 °F 89% 29.90 in 10.0 mi South 9.2 mph - N/A   Clear
3:15 AM 75.2 °F - 71.6 °F 89% 29.89 in 10.0 mi South 8.1 mph - N/A   Scattered Clouds
3:35 AM 75.2 °F - 71.6 °F 89% 29.89 in 10.0 mi SSE 10.4 mph - N/A   Mostly Cloudy
3:55 AM 75.2 °F - 71.6 °F 89% 29.89 in 10.0 mi South 6.9 mph - N/A   Mostly Cloudy
4:15 AM 75.2 °F - 71.6 °F 89% 29.88 in 10.0 mi SSE 6.9 mph - N/A   Scattered Clouds
5:15 AM 75.2 °F - 71.6 °F 89% 29.89 in 10.0 mi Calm Calm - N/A   Partly Cloudy
5:35 AM 75.2 °F - 71.6 °F 89% 29.92 in 10.0 mi NW 10.4 mph - N/A   Mostly Cloudy
5:55 AM 75.2 °F - 71.6 °F 89% 29.89 in 10.0 mi NE 4.6 mph - N/A   Overcast
6:15 AM 73.4 °F - 71.6 °F 94% 29.85 in 10.0 mi SE 10.4 mph - N/A   Mostly Cloudy
6:35 AM 75.2 °F - 71.6 °F 89% 29.87 in 10.0 mi SE 3.5 mph - N/A   Mostly Cloudy
6:55 AM 75.2 °F - 71.6 °F 89% 29.88 in 10.0 mi East 4.6 mph - N/A   Clear
7:35 AM 75.2 °F - 73.4 °F 94% 29.86 in 10.0 mi ESE 9.2 mph - N/A   Partly Cloudy
7:55 AM 75.2 °F - 73.4 °F 94% 29.87 in 10.0 mi ENE 4.6 mph - N/A   Scattered Clouds
8:15 AM 75.2 °F - 73.4 °F 94% 29.87 in 10.0 mi ESE 4.6 mph - N/A   Mostly Cloudy
8:35 AM 75.2 °F - 73.4 °F 94% 29.87 in 10.0 mi SE 4.6 mph - N/A   Scattered Clouds
8:55 AM 75.2 °F - 73.4 °F 94% 29.91 in 4.0 mi North 8.1 mph - 0.02 in   Mostly Cloudy
9:15 AM 75.2 °F - 75.2 °F 100% 29.91 in 5.0 mi NNE 10.4 mph - N/A Rain Light Rain
9:35 AM 75.2 °F - 75.2 °F 100% 29.90 in 6.0 mi East 8.1 mph - N/A   Mostly Cloudy
9:55 AM 77.0 °F - 75.2 °F 94% 29.91 in 8.0 mi East 10.4 mph - N/A   Scattered Clouds
10:15 AM 77.0 °F - 75.2 °F 94% 29.91 in 8.0 mi ENE 12.7 mph - N/A   Overcast
10:35 AM 77.0 °F - 75.2 °F 94% 29.90 in 7.0 mi East 12.7 mph - N/A   Overcast
10:55 AM 77.0 °F - 75.2 °F 94% 29.90 in 8.0 mi ESE 11.5 mph 16.1 mph N/A   Scattered Clouds
11:15 AM 80.6 °F 86.2 °F 75.2 °F 84% 29.90 in 9.0 mi ESE 16.1 mph 19.6 mph N/A   Clear
11:35 AM 80.6 °F 86.2 °F 75.2 °F 84% 29.90 in 10.0 mi SE 16.1 mph 21.9 mph 0.01 in   Scattered Clouds
11:55 AM 82.4 °F 89.5 °F 75.2 °F 79% 29.88 in 10.0 mi SE 19.6 mph 23.0 mph 0.01 in   Partly Cloudy
12:15 PM 82.4 °F 89.5 °F 75.2 °F 79% 29.87 in 10.0 mi SE 17.3 mph 23.0 mph N/A   Partly Cloudy
12:35 PM 82.4 °F 89.5 °F 75.2 °F 79% 29.86 in 10.0 mi SSE 17.3 mph 26.5 mph N/A   Clear
12:55 PM 84.2 °F 92.3 °F 75.2 °F 74% 29.86 in 10.0 mi SSE 16.1 mph 21.9 mph N/A   Clear
1:15 PM 86.0 °F 95.1 °F 75.2 °F 70% 29.85 in 10.0 mi SE 20.7 mph 25.3 mph N/A   Clear
1:35 PM 84.2 °F 92.3 °F 75.2 °F 74% 29.84 in 10.0 mi SSE 17.3 mph 24.2 mph N/A   Clear
1:55 PM 86.0 °F 95.1 °F 75.2 °F 70% 29.84 in 10.0 mi SE 13.8 mph 20.7 mph N/A   Clear
2:15 PM 89.6 °F 99.8 °F 75.2 °F 62% 29.83 in 10.0 mi South 17.3 mph 23.0 mph N/A   Clear
2:35 PM 91.4 °F 102.5 °F 75.2 °F 59% 29.83 in 10.0 mi South 18.4 mph 23.0 mph N/A   Clear
2:55 PM 93.2 °F 105.0 °F 75.2 °F 56% 29.82 in 10.0 mi SSE 17.3 mph 25.3 mph N/A   Clear
3:15 PM 93.2 °F 105.0 °F 75.2 °F 56% 29.82 in 10.0 mi South 17.3 mph 23.0 mph N/A   Clear
3:35 PM 95.0 °F 109.7 °F 77.0 °F 56% 29.82 in 10.0 mi South 16.1 mph 23.0 mph N/A   Clear
3:55 PM 95.0 °F 109.7 °F 77.0 °F 56% 29.81 in 10.0 mi South 18.4 mph 23.0 mph N/A   Clear
4:15 PM 93.2 °F 107.2 °F 77.0 °F 59% 29.80 in 10.0 mi SSE 16.1 mph 21.9 mph N/A   Clear
4:35 PM 93.2 °F 107.2 °F 77.0 °F 59% 29.80 in 10.0 mi South 17.3 mph 21.9 mph N/A   Clear
4:55 PM 96.8 °F 109.6 °F 75.2 °F 50% 29.79 in 10.0 mi South 15.0 mph 20.7 mph N/A   Clear
5:15 PM 96.8 °F 109.6 °F 75.2 °F 50% 29.79 in 10.0 mi South 16.1 mph 21.9 mph N/A   Clear
5:35 PM 96.8 °F 107.3 °F 73.4 °F 47% 29.79 in 10.0 mi SSE 17.3 mph 23.0 mph N/A   Clear
5:55 PM 95.0 °F 104.5 °F 73.4 °F 49% 29.78 in 10.0 mi South 15.0 mph - N/A   Clear
6:15 PM 95.0 °F 104.5 °F 73.4 °F 49% 29.79 in 10.0 mi South 12.7 mph 19.6 mph N/A   Clear
6:35 PM 95.0 °F 104.5 °F 73.4 °F 49% 29.78 in 10.0 mi SSE 12.7 mph - N/A   Clear
6:55 PM 95.0 °F 107.4 °F 75.2 °F 53% 29.79 in 10.0 mi SSE 11.5 mph - N/A   Clear
7:15 PM 93.2 °F 105.0 °F 75.2 °F 56% 29.78 in 10.0 mi SSE 11.5 mph - N/A   Clear
7:35 PM 93.2 °F 105.0 °F 75.2 °F 56% 29.79 in 10.0 mi SSE 9.2 mph - N/A   Clear
7:55 PM 89.6 °F 99.8 °F 75.2 °F 62% 29.79 in 10.0 mi SSE 10.4 mph - N/A   Clear
8:15 PM 89.6 °F 99.8 °F 75.2 °F 62% 29.79 in 10.0 mi SSE 10.4 mph - N/A   Clear
8:35 PM 86.0 °F 93.4 °F 73.4 °F 66% 29.79 in 10.0 mi SSE 8.1 mph - N/A   Clear
8:55 PM 86.0 °F 93.4 °F 73.4 °F 66% 29.79 in 10.0 mi SSE 10.4 mph - N/A   Clear
9:15 PM 86.0 °F 93.4 °F 73.4 °F 66% 29.79 in 10.0 mi SSE 10.4 mph - N/A   Clear
9:35 PM 86.0 °F 93.4 °F 73.4 °F 66% 29.80 in 10.0 mi SSE 10.4 mph - N/A   Clear
9:55 PM 86.0 °F 93.4 °F 73.4 °F 66% 29.80 in 10.0 mi SSE 9.2 mph - N/A   Clear
10:15 PM 84.2 °F 90.9 °F 73.4 °F 70% 29.80 in 10.0 mi SSE 10.4 mph - N/A   Clear
10:35 PM 84.2 °F 90.9 °F 73.4 °F 70% 29.80 in 10.0 mi SE 9.2 mph - N/A   Clear
10:55 PM 84.2 °F 90.9 °F 73.4 °F 70% 29.81 in 10.0 mi SSE 9.2 mph - N/A   Partly Cloudy
11:15 PM 84.2 °F 89.6 °F 71.6 °F 66% 29.82 in 10.0 mi SSE 9.2 mph - N/A   Partly Cloudy
11:35 PM 84.2 °F 89.6 °F 71.6 °F 66% 29.83 in 10.0 mi SE 5.8 mph - N/A   Scattered Clouds
11:55 PM 84.2 °F 90.9 °F 73.4 °F 70% 29.87 in 10.0 mi NW 17.3 mph 23.0 mph N/A   Scattered Clouds